This demonstration page uses our WeatherBlox Daily Observations layout. Learn more.

Left ArrowRight Arrow

44.8408, -93.29828

Hourly Observations for September 15, 2016

Temp ( °F °C ) Dew Point ( °F °C ) Humidity (%) Winds ( mph kmh ) Pressure ( in mb ) Visibility ( mi km ) Precip ( " mm )
12:53 am 00:53 Partly Cloudy 58 14.4 50 10 75 75 SSE 6 9 30.21 1023 10 16 0.00 0.00
1:53 am 01:53 Partly Cloudy 58 14.4 50 10 75 75 SE 3 6 30.20 1023 10 16 0.00 0.00
2:53 am 02:53 Mostly Clear 57 13.9 49 9.4 74 74 SE 3 6 30.19 1022 10 16 0.00 0.00
3:53 am 03:53 Mostly Cloudy 58 14.4 51 10.6 78 78 SE 6 9 30.18 1022 10 16 0.00 0.00
4:53 am 04:53 Cloudy 59 15 51 10.6 75 75 SSE 3 6 30.17 1022 10 16 0.00 0.00
5:53 am 05:53 Cloudy 59 15 52 11.1 78 78 SE 5 7 30.16 1021 10 16 0.00 0.00
6:53 am 06:53 Cloudy 59 15 52 11.1 78 78 SE 7 11 30.16 1021 10 16 0.00 0.00
7:53 am 07:53 Mostly Cloudy 59 15 52 11.1 78 78 SSE 8 13 30.16 1021 10 16 0.00 0.00
8:53 am 08:53 Mostly Cloudy 63 17.2 54 12.2 73 73 SSE 10 17 30.14 1021 10 16 0.00 0.00
9:53 am 09:53 Mostly Cloudy 68 20 57 13.9 68 68 SSE 12 19 30.13 1020 10 16 0.00 0.00
10:53 am 10:53 Mostly Cloudy 71 21.7 59 15 66 66 SSE 12 19 30.11 1020 10 16 0.00 0.00
11:53 am 11:53 Mostly Cloudy 72 22.2 60 15.6 66 66 S 13 20 30.09 1019 10 16 0.00 0.00
12:42 pm 12:42 Cloudy 73 23 61 16 65 65 SSE 12 19 30.06 1018 10 16 0.00 0.00
12:53 pm 12:53 Cloudy 73 22.8 61 16.1 66 66 S 13 20 30.07 1018 10 16 0.00 0.00
1:02 pm 13:02 Cloudy 73 23 61 16 65 65 S 15 24 30.03 1017 10 16 0.00 0.00
1:53 pm 13:53 Cloudy 75 23.9 62 16.7 64 64 SSE 14 22 30.04 1017 10 16 0.00 0.00
2:53 pm 14:53 Cloudy 75 23.9 61 16.1 62 62 SSE 12 19 30.01 1016 10 16 0.00 0.00
3:53 pm 15:53 Cloudy 74 23.3 61 16.1 64 64 S 10 17 29.99 1016 10 16 0.00 0.00
4:13 pm 16:13 Cloudy with Heavy Rain 70 21.1 62 16.7 76 76 SSW 13 20 29.97 1015 4 6 0.09 2.29
4:53 pm 16:53 Cloudy with Rain 65 18.3 62 16.7 90 90 S 8 13 30.00 1016 5 8 0.26 6.60
5:53 pm 17:53 Cloudy with Heavy Rain 65 18.3 62 16.7 90 90 S 9 15 30.00 1016 3 4 0.23 5.84
6:23 pm 18:23 Cloudy with Thunderstorms 65 18.3 61 16.1 87 87 S 5 7 29.97 1015 5 8 0.10 2.54
6:40 pm 18:40 Cloudy with Rain 64 18 63 17 94 94 SE 8 13 29.97 1015 6 10 0.00 0.00
6:53 pm 18:53 Cloudy with Rain 64 17.8 62 16.7 93 93 SSE 9 15 29.99 1016 6 10 0.22 5.59
7:43 pm 19:43 Cloudy with Light Rain 64 17.8 62 16.7 93 93 SE 14 22 29.94 1014 10 16 0.12 3.05
7:53 pm 19:53 Cloudy with Light Rain 64 17.8 62 16.7 93 93 SE 18 30 29.95 1014 10 16 0.13 3.30
8:53 pm 20:53 Cloudy with Light Rain 65 18.3 62 16.7 90 90 ESE 20 31 29.89 1012 10 16 0.00 0.03
9:34 pm 21:34 Cloudy 64 18 63 17 94 94 WNW 12 19 29.94 1014 10 16 0.00 0.00
9:53 pm 21:53 Cloudy 65 18.3 62 16.7 90 90 W 10 17 29.95 1014 10 16 0.01 0.25
10:14 pm 22:14 Cloudy 64 18 63 17 94 94 W 5 7 29.94 1014 10 16 0.00 0.00
10:53 pm 22:53 Mostly Cloudy 64 17.8 62 16.7 93 93 SSE 3 6 29.94 1014 10 16 0.00 0.00
11:09 pm 23:09 Mostly Clear 64 17.8 61 16.1 90 90 SE 5 7 29.94 1014 10 16 0.00 0.00
11:53 pm 23:53 Mostly Cloudy 64 17.8 61 16.1 90 90 SSE 3 6 29.92 1013 10 16 0.00 0.00

Powered by AerisWeather